Overview Statistics Trail Chart Weather Telemetry Raw packets
 

This is the latest recevied weather packets stored in our database for station/object HB9FHL-13. If no packets are shown the sender has not sent any weather packets the latest 10 day(s).

<< 39 40 41 42 43 44 45 >>
Time Temp. Humidity Pressure Rain* Wind** Luminosity Snow
1788450789 25° C - 1024.1 hPa 0 mm - - -
1788450489 24.44° C - 1021.7 hPa 0 mm - - -
1788450187 23.89° C - 1018.9 hPa 0 mm - - -
1788449887 25° C - 1030.1 hPa 0 mm - - -
1788449586 23.89° C - 1030 hPa 0 mm - - -
1788449323 24.44° C - 1019.8 hPa 0 mm - - -
1788449286 24.44° C - 1019.8 hPa 0 mm - - -
1788448985 25° C - 1025 hPa 0 mm - - -
1788448685 24.44° C - 1023.3 hPa 0 mm - - -
1788448384 23.89° C - 1023.5 hPa 0 mm - - -
1788448083 24.44° C - 1028 hPa 0 mm - - -
1788447780 23.89° C - 1023.7 hPa 0 mm - - -
1788447476 23.33° C - 1026.6 hPa 0 mm - - -
1788447175 23.89° C - 1020.3 hPa 0 mm - - -
1788446874 24.44° C - 1020.3 hPa 0 mm - - -
1788446630 23.89° C - 1024.2 hPa 0 mm - - -
1788446573 23.89° C - 1024.2 hPa 0 mm - - -
1788446272 23.89° C - 1021.4 hPa 0 mm - - -
1788446004 25° C - 1022.6 hPa 0 mm - - -
1788445972 25° C - 1022.6 hPa 0 mm - - -
1788445720 23.33° C - 1023.1 hPa 0 mm - - -
1788445671 23.33° C - 1023.1 hPa 0 mm - - -
1788445371 23.89° C - 1024.5 hPa 0 mm - - -
1788445071 24.44° C - 1022.4 hPa 0 mm - - -
1788444770 23.89° C - 1026 hPa 0 mm - - -

* Rain since midnight (hover to see other rain measurements)
** Current wind speed in m/s (hover to see current wind gust speed)